Terug naar catalogus

EUTE 8A

SINOSAT 3

ActiefCommunicatieGEO
NORAD 31577·PAYLOAD·🇪🇺 EU

Gelanceerd May 31, 2007 vanaf Xichang Satellite Launch Center

Loading…

TLE

VersSource: Space-Track

Epoch: Sep 14, 2026, 13:53 UTC

1 31577U 07021A   26257.57900103 -.00000128  00000-0  00000-0 0  9992
2 31577   9.7522  47.4431 0016797 117.2207  56.9379  0.98336224 42319

Volg EUTE 8A in realtime met AllMySat

Download on the App Store